Location: Austin
(30.3000°N, 97.7500°W)
Time: 11:56:06
(UTC-06:00)

Meteor 2-17 Rocket - Pass Details

Date: 04 November 2025
Orbit: 935 x 956 km, 82.5° (Epoch: 07 November)

Event Time Altitude Azimuth Distance (km) Brightness Sun altitude
Rises 18:21:10 0° 359° (N) 3,623 7.4 -9.2°
Reaches altitude 10° 18:23:43 10° 3° (N) 2,678 6.6 -9.8°
Maximum altitude 18:29:44 57° 82° (E) 1,108 4.5 -11.0°
Drops below altitude 10° 18:35:44 10° 160° (SSE) 2,674 6.7 -12.3°
Sets 18:38:16 0° 165° (SSE) 3,617 7.4 -12.8°
